Wharton, TX

10:13 PM CDT on April 23, 2018 (GMT -0500)
Wharton Regional

Weather History for KARM - August, 2013

Change the Weather History Date:

Saturday, August 17, 2013

  Actual Average (KPSX) Record (KPSX)
Temperature  
Mean Temperature 82 °F -  
Max Temperature 94 °F 90 °F 101 °F (1951)
Min Temperature 69 °F 76 °F 60 °F (1992)
Cooling Degree Days 16    
Growing Degree Days 32 (Base 50)    
Moisture  
Dew Point 67 °F    
Average Humidity 70    
Maximum Humidity 96    
Minimum Humidity 31    
Precipitation  
Precipitation 0.35 in - - ()
Sea Level Pressure  
Sea Level Pressure 29.97 in    
Wind  
Wind Speed 4 mph (NNE)    
Max Wind Speed 10 mph    
Max Gust Speed 16 mph    
Visibility 9 miles    
Events      
Averages and records for this station are not official NWS values.
T = Trace of Precipitation, MM = Missing Value Source: NWS Daily Summary

Daily Weather History Graph

Daily Weather History Graph

Search for Another Location

Airport or City:

Astronomy

Aug. 17, 2013 Rise Set
Actual Time 6:54 AM CDT 8:02 PM CDT
Civil Twilight 6:29 AM CDT 8:27 PM CDT
Nautical Twilight 6:00 AM CDT 8:56 PM CDT
Astronomical Twilight 5:29 AM CDT 9:26 PM CDT
Moon 5:11 PM CDT (8/17) 3:07 AM CDT (8/17)
Length of Visible Light 13h 57m
Length of Day
13h 08m
Waxing Gibbous, 84% of the Moon is Illuminated
Aug 17
Waxing Gibbous
Aug 20
Full
Aug 28
Last Quarter
Sep 5
New
Sep 12
First Quarter

Hourly Weather History & Observations

Time (CDT) Temp. Heat Index Dew Point Humidity Pressure Visibility Wind Dir Wind Speed Gust Speed Precip Events Conditions
12:15 AM 70.7 °F - 68.9 °F 94% 29.99 in 10.0 mi Calm Calm - N/A   Clear
12:35 AM 70.7 °F - 69.1 °F 95% 29.99 in 10.0 mi Calm Calm - N/A   Clear
12:55 AM 70.2 °F - 68.9 °F 96% 29.99 in 10.0 mi Calm Calm - N/A   Clear
1:15 AM 70.3 °F - 68.9 °F 95% 29.99 in 10.0 mi North 3.5 mph - N/A   Clear
1:35 AM 70.2 °F - 68.9 °F 96% 29.99 in 10.0 mi North 3.5 mph - N/A   Clear
1:55 AM 69.8 °F - 68.4 °F 95% 29.98 in 10.0 mi North 3.5 mph - N/A   Clear
2:15 AM 69.8 °F - 68.2 °F 95% 29.98 in 10.0 mi North 3.5 mph - N/A   Clear
2:35 AM 69.8 °F - 68.2 °F 95% 29.98 in 10.0 mi North 3.5 mph - N/A   Clear
2:55 AM 69.8 °F - 68.0 °F 94% 29.98 in 10.0 mi Calm Calm - N/A   Clear
3:15 AM 69.8 °F - 68.0 °F 94% 29.98 in 10.0 mi NNW 4.6 mph - N/A   Clear
3:35 AM 70.2 °F - 68.4 °F 94% 29.97 in 10.0 mi NNW 3.5 mph - N/A   Clear
3:55 AM 69.8 °F - 68.2 °F 95% 29.97 in 7.0 mi North 3.5 mph - N/A   Clear
4:15 AM 69.8 °F - 68.2 °F 95% 29.98 in 7.0 mi North 3.5 mph - N/A   Clear
4:35 AM 69.8 °F - 68.4 °F 95% 29.98 in 7.0 mi North 3.5 mph - N/A   Clear
4:55 AM 69.8 °F - 68.4 °F 95% 29.98 in 7.0 mi North 4.6 mph - N/A   Clear
5:15 AM 70.0 °F - 68.5 °F 95% 29.98 in 7.0 mi North 5.8 mph - N/A   Clear
5:35 AM 70.0 °F - 68.4 °F 95% 29.98 in 7.0 mi North 4.6 mph - N/A   Clear
5:55 AM 70.2 °F - 68.5 °F 95% 29.98 in 7.0 mi North 4.6 mph - N/A   Clear
6:15 AM 70.2 °F - 68.5 °F 95% 29.98 in 7.0 mi North 4.6 mph - N/A   Clear
6:35 AM 70.0 °F - 68.4 °F 95% 29.98 in 7.0 mi North 3.5 mph - N/A   Clear
6:55 AM 70.0 °F - 68.5 °F 95% 29.99 in 5.0 mi North 3.5 mph - N/A   Clear
7:15 AM 70.3 °F - 68.9 °F 95% 29.99 in 5.0 mi Calm Calm - N/A   Clear
7:35 AM 71.1 °F - 69.8 °F 96% 30.00 in 5.0 mi Calm Calm - N/A   Clear
7:55 AM 72.3 °F - 70.7 °F 95% 30.01 in 7.0 mi North 4.6 mph - N/A   Clear
8:15 AM 73.4 °F - 71.2 °F 93% 30.01 in 7.0 mi NNE 6.9 mph - N/A   Clear
8:35 AM 74.7 °F - 70.7 °F 87% 30.01 in 10.0 mi NE 9.2 mph - N/A   Clear
8:55 AM 75.7 °F - 69.4 °F 81% 30.01 in 10.0 mi NE 10.4 mph - N/A   Clear
9:15 AM 77.0 °F - 69.1 °F 76% 30.02 in 10.0 mi NE 9.2 mph - N/A   Clear
9:35 AM 77.9 °F - 68.9 °F 74% 30.02 in 10.0 mi NE 9.2 mph - N/A   Clear
9:55 AM 79.0 °F - 69.1 °F 72% 30.02 in 10.0 mi NE 6.9 mph - N/A   Clear
10:15 AM 80.2 °F 83.3 °F 69.6 °F 70% 30.02 in 10.0 mi NNE 5.8 mph - N/A   Clear
10:35 AM 81.9 °F 85.2 °F 69.1 °F 65% 30.02 in 10.0 mi NE 8.1 mph - N/A   Clear
10:55 AM 82.4 °F 85.8 °F 68.9 °F 64% 30.02 in 10.0 mi NE 6.9 mph - N/A   Clear
11:15 AM 84.2 °F 88.1 °F 69.4 °F 61% 30.01 in 10.0 mi NE 10.4 mph - N/A   Clear
11:35 AM 85.3 °F 89.8 °F 69.8 °F 60% 30.01 in 10.0 mi North 9.2 mph - N/A   Clear
11:55 AM 85.8 °F 89.7 °F 69.1 °F 57% 30.01 in 10.0 mi NNE 8.1 mph - N/A   Clear
12:15 PM 87.1 °F 90.9 °F 68.7 °F 54% 30.01 in 10.0 mi North 9.2 mph - N/A   Clear
12:35 PM 87.1 °F 90.9 °F 68.5 °F 54% 30.00 in 10.0 mi North 6.9 mph - N/A   Clear
12:55 PM 88.5 °F 91.9 °F 67.8 °F 50% 29.99 in 10.0 mi NNE 8.1 mph - N/A   Clear
1:15 PM 89.1 °F 92.5 °F 67.6 °F 49% 29.98 in 10.0 mi North 8.1 mph - N/A   Scattered Clouds
1:35 PM 89.8 °F 93.3 °F 67.8 °F 48% 29.98 in 10.0 mi North 8.1 mph - N/A   Scattered Clouds
1:55 PM 90.0 °F 92.4 °F 66.2 °F 45% 29.97 in 10.0 mi North 9.2 mph - N/A   Scattered Clouds
2:15 PM 91.0 °F 93.8 °F 66.2 °F 44% 29.96 in 10.0 mi NNE 5.8 mph - N/A   Scattered Clouds
2:35 PM 91.6 °F 93.9 °F 65.5 °F 42% 29.95 in 10.0 mi North 8.1 mph - N/A   Clear
2:55 PM 92.3 °F 93.8 °F 63.7 °F 39% 29.95 in 10.0 mi NNE 8.1 mph - N/A   Scattered Clouds
3:15 PM 93.0 °F 93.4 °F 61.7 °F 35% 29.94 in 10.0 mi NNW 9.2 mph - N/A   Scattered Clouds
3:35 PM 92.8 °F 92.8 °F 61.0 °F 34% 29.93 in 10.0 mi NE 5.8 mph - N/A   Scattered Clouds
3:55 PM 93.2 °F 92.6 °F 59.2 °F 32% 29.93 in 10.0 mi NE 6.9 mph - N/A   Clear
4:15 PM 93.2 °F 92.6 °F 59.4 °F 32% 29.92 in 10.0 mi North 9.2 mph 16.1 mph N/A   Clear
4:35 PM 94.1 °F 93.5 °F 58.8 °F 31% 29.92 in 10.0 mi NNE 10.4 mph - N/A   Clear
4:55 PM 93.6 °F 93.1 °F 59.2 °F 32% 29.91 in 10.0 mi NE 9.2 mph - N/A   Clear
5:15 PM 93.6 °F 92.7 °F 58.6 °F 31% 29.91 in 10.0 mi NE 10.4 mph - N/A   Clear
5:35 PM 93.6 °F 93.1 °F 59.5 °F 32% 29.91 in 10.0 mi East 9.2 mph - N/A   Scattered Clouds
5:55 PM 92.3 °F 91.3 °F 58.8 °F 32% 29.91 in 10.0 mi East 6.9 mph - N/A   Scattered Clouds
6:15 PM 92.5 °F 91.3 °F 57.6 °F 31% 29.91 in 10.0 mi East 9.2 mph - N/A   Scattered Clouds
6:35 PM 91.9 °F 90.8 °F 58.3 °F 32% 29.91 in 10.0 mi ENE 4.6 mph - N/A   Scattered Clouds
6:55 PM 90.5 °F 89.5 °F 58.6 °F 34% 29.91 in 10.0 mi East 4.6 mph - N/A   Scattered Clouds
7:15 PM 89.1 °F 89.6 °F 62.2 °F 41% 29.92 in 10.0 mi East 5.8 mph - N/A   Clear
7:35 PM 86.9 °F 87.8 °F 63.5 °F 45% 29.92 in 10.0 mi East 4.6 mph - N/A   Clear
7:55 PM 84.6 °F 86.1 °F 64.8 °F 51% 29.93 in 10.0 mi ESE 3.5 mph - N/A   Clear
8:15 PM 83.3 °F 84.8 °F 64.6 °F 53% 29.93 in 10.0 mi ESE 3.5 mph - N/A   Clear
8:35 PM 80.1 °F 83.3 °F 70.2 °F 72% 29.94 in 10.0 mi South 6.9 mph - N/A   Clear
8:55 PM 79.9 °F - 70.9 °F 74% 29.94 in 10.0 mi South 5.8 mph - N/A   Clear
9:15 PM 78.8 °F - 71.6 °F 78% 29.95 in 10.0 mi South 4.6 mph - N/A   Clear
9:35 PM 77.9 °F - 71.8 °F 81% 29.96 in 10.0 mi South 4.6 mph - N/A   Clear
9:55 PM 77.2 °F - 71.8 °F 83% 29.96 in 10.0 mi Calm Calm - N/A   Clear
10:15 PM 76.6 °F - 72.0 °F 85% 29.97 in 10.0 mi Calm Calm - N/A   Clear
10:35 PM 76.1 °F - 72.0 °F 87% 29.98 in 10.0 mi Calm Calm - N/A   Clear
10:55 PM 76.1 °F - 71.8 °F 86% 29.98 in 10.0 mi Calm Calm - N/A   Clear
11:15 PM 75.6 °F - 72.0 °F 89% 29.98 in 10.0 mi Calm Calm - N/A   Clear
11:35 PM 75.6 °F - 71.6 °F 87% 29.98 in 10.0 mi Calm Calm - N/A   Clear
11:55 PM 73.6 °F - 71.1 °F 92% 29.98 in 10.0 mi Calm Calm - N/A   Clear